Regional Weather Roundup
Issued by NWS

Home | Current Version | Previous Version | Text Only | Print | Product List | Glossary Off
Versions: 1 2 3 4 5 6 7 8 9 10 11 12 13 14 15 16 17 18 19 20 21 22 23 24 25 26 27

000
ASUS45 KSLC 160410
RWRUT

UTAH REGIONAL WEATHER ROUNDUP
NATIONAL WEATHER SERVICE SALT LAKE CITY UT
1000 PM MDT TUE APR 15 2014

UTZ001>011-023>025-160500-

NORTHERN UTAH

CITY           SKY/WX    TMP DP  RH WIND       PRES   REMARKS
HILL AFB       PTCLDY    51  17  25 N17G25    29.91R
LOGAN          CLEAR     49  18  29 NW10      29.93R
OGDEN          CLOUDY    53  19  26 N15G24    29.90R
PROVO AIRPORT  MOCLDY    55  28  35 NW21G29   29.86R
SALT LAKE CITY CLOUDY    55  25  31 N12       29.91R
VERNAL         PTCLDY    49  18  29 SW6       29.78R
WENDOVER       PTCLDY    55  19  24 N18G29    29.89R
HEBER CITY     CLOUDY    52  23  32 N17G28    29.88R
WEST JORDAN    CLOUDY    54  32  43 NW12      29.92R

$$

UTZ012>022-026-027-160500-

SOUTHERN UTAH

CITY           SKY/WX    TMP DP  RH WIND       PRES   REMARKS
BRYCE CANYON   CLEAR     38  11  32 CALM      29.98R
CEDAR CITY     PTCLDY    52   4  14 SW7       29.90R
MILFORD        MOCLDY    58   9  14 SE6       29.85R
MOAB/CYNLANDS  CLEAR     51  16  24 CALM      29.78S
PRICE          PTCLDY    45  11  25 N10       29.85R
ST GEORGE      CLOUDY    63   9  12 SE6       29.83S

$$

REGIONAL REPORTS     COLORADO/ARIZONA

CITY           SKY/WX    TMP DP  RH WIND       PRES   REMARKS
CRAIG, CO      CLOUDY    48  17  29 W14G21    29.78S
GRAND JUNCTION CLOUDY    49  29  46 NE8       29.82S
RIFLE          CLOUDY    52  21  29 W8        29.83S
MONTROSE       MOCLDY    52  13  21 SE8       29.90S
CORTEZ         CLEAR     38  15  39 NE7       29.94R WCI  33
PAGE, AZ       CLEAR     69   5   8 SW10G20   29.83R
GRAND CANYON   PTCLDY    48  -7  10 SW6       30.01R
KINGMAN        CLEAR     56  -5   8 S8        29.88S
FLAGSTAFF      PTCLDY    42   8  24 CALM      30.05R

$$

REGIONAL REPORTS    NEVADA/IDAHO/WYOMING

CITY           SKY/WX    TMP DP  RH WIND       PRES   REMARKS
LAS VEGAS, NV  PTCLDY    74  14  10 SW9       29.74R
ELY            CLEAR     49  17  28 W13       29.97R
ELKO           PTCLDY    51  19  28 N10       29.98R
POCATELLO, ID  CLEAR     42  19  39 SE3       29.92R
BURLEY         CLEAR     46  19  34 W15G24    29.91R
EVANSTON, WY   CLOUDY    41  16  36 VRB7G18   29.92R
ROCK SPRINGS   MOCLDY    41  25  53 W20       29.84R

$$



USA.gov is the U.S. government's official web portal to all federal, state and local government web resources and services.